User: anonymous   Login
Location: Alafon
(8.4500°N, 4.2333°E)
Time: 11:05:41
(UTC+00:00)
Language:

SR - Orbit

View from above orbital plane
View from above orbital plane
View from above satellite
View from above satellite

Ground track
Ground track

The orbit data is extracted from the following two-line orbital elements,

1 00046U 60007B   21214.87831148  .00000073  00000-0  37479-4 0  9997
2 00046  66.6912  14.7162 0211010 186.5385 173.2965 14.49421442198730
Epoch (UTC): 02 August 2021 21:04:46
Eccentricity: 0.0211010
inclination: 66.6912°
perigee height: 577 km
apogee height: 877 km
right ascension of ascending node: 14.7162°
argument of perigee: 186.5385°
revolutions per day: 14.49421442
mean anomaly at epoch: 173.2965°
orbit number at epoch: 19873

The dashed part of the orbit path shows where the satellite is in the earth's shadow,  

DLR